Regional Weather Roundup
Issued by NWS

Home | Current Version | Previous Version | Graphics & Text | Print | Product List | Glossary On
Versions: 1 2 3 4 5 6 7 8 9 10 11 12 13 14 15 16 17 18 19 20 21 22 23 24 25 26 27 28 29 30 31 32 33 34 35 36 37 38 39 40 41 42 43 44 45 46 47 48 49 50
000
ASUS44 KMEG 230610
RWRTN
TENNESSEE HOURLY STATE WEATHER ROUNDUP
NATIONAL WEATHER SERVICE MEMPHIS TN
100 AM CDT WED AUG 23 2017

TNZ002-004-019-021-049-052-054-088>092-230700-
WEST TENNESSEE

CITY           SKY/WX    TMP DP  RH WIND       PRES   REMARKS
MEMPHIS INTL   CLOUDY    79  71  76 SE6       30.03F
NWS MEMPHIS      N/A     74 N/A N/A MISG        N/A
JACKSON        CLEAR     71  70  96 CALM      30.03F
DYERSBURG      PTCLDY    73  72  96 CALM      30.05S
SOMERVILLE     PTCLDY    73  72  94 CALM      30.03S
COVINGTON      PTCLDY    70  70 100 CALM      30.03F
BOLIVAR        CLEAR     72  70  94 CALM      30.03S
PARIS          FOG       68  68 100 CALM      30.02S VSB 1/4
HUNTINGDON     FOG       70  70 100 CALM      30.02F VSB 1/4
LEXINGTON      FOG       72  72 100 CALM      30.02S VSB 1/4
SELMER         CLEAR     72  72 100 CALM      30.02F FOG
SAVANNAH       FOG       72  72 100 CALM      30.01S VSB 1/2
$$

TNZ008-025-027-028-033-062-065-066-230700-
NORTH MIDDLE TENNESSEE

CITY           SKY/WX    TMP DP  RH WIND       PRES   REMARKS
NASHVILLE      CLOUDY    73  71  93 W6        30.01S
PORTLAND       CLOUDY    72  72 100 CALM      30.01R FOG
CLARKSVILLE    CLEAR     70  68  93 W3        30.02R
SMYRNA         CLOUDY    72  71  97 NW8       30.02R
COOKEVILLE     CLOUDY    72  72 100 NW3       30.00S
GALLATIN       PTCLDY    72  72 100 CALM      30.03R
CROSSVILLE     CLOUDY    70  68  93 W5        30.04S
$$

TNZ061-075-076-078-094-096-097-230700-
SOUTH MIDDLE TENNESSEE

CITY           SKY/WX    TMP DP  RH WIND       PRES   REMARKS
FAYETTEVILLE   MOCLDY    72  70  94 NW3       30.01S
TULLAHOMA      PTCLDY    70  68  94 NW6       30.02S
WINCHESTER     CLOUDY    72  72 100 W3        30.01S
MCMINNVILLE    MOCLDY    72  72 100 CALM      30.01F
COLUMBIA       CLOUDY    72  72 100 CALM      29.99S
SHELBYVILLE    CLOUDY    72  70  94 W5        30.00F
$$

TNZ017-018-042-046-047-230700-
NORTHEAST TENNESSEE

CITY           SKY/WX    TMP DP  RH WIND       PRES   REMARKS
TRI CITIES     CLOUDY    71  67  87 CALM      29.98F
ELIZABETHTON   CLOUDY    68  66  94 CALM      29.99F
$$

TNZ012-013-036-069-073-074-230700-
CENTRAL EAST TENNESSEE

CITY           SKY/WX    TMP DP  RH WIND       PRES   REMARKS
KNOXVILLE      MOCLDY    78  69  73 SW10      29.97R
OAK RIDGE      MOCLDY    78  69  73 CALM      29.98S
DOWNTOWN KNOXV MOCLDY    79  72  78 W7G13     29.96R HAZE
GATLINBURG     CLEAR     75  64  69 CALM      29.96S
MORRISTOWN     MOCLDY    77  68  73 W3        29.97S
JACKSBORO        N/A     72  72 100 CALM      30.02F
$$

TNZ083-085-099-230700-
SOUTHEAST TENNESSEE

CITY           SKY/WX    TMP DP  RH WIND       PRES   REMARKS
CHATTANOOGA    PTCLDY    80  71  74 SE3       29.97F
DAYTON         MOCLDY    75  73  94 CALM      29.96F
$$

SKY/WX REPORTED AS FAIR MEANS FEW OR NO CLOUDS BELOW
12 THOUSAND FEET.




USA.gov is the U.S. government's official web portal to all federal, state and local government web resources and services.